User: anonymous   Login
Location: Caltech
(34.1382°N, 118.1253°W)
Time: 17:45:06
(UTC-08:00)
Language:

Cosmos 1484 Rocket - Orbit

View from above orbital plane
View from above orbital plane
View from above satellite
View from above satellite

Ground track
Ground track

The orbit data is extracted from the following two-line orbital elements,

1 14208U 83075B   18049.53322277  .00000287  00000-0  20881-4 0  9991
2 14208  97.3423  55.0059 0039293   3.4877 356.6619 15.10623060884699
Epoch (UTC): 18 February 2018 12:47:50
Eccentricity: 0.0039293
inclination: 97.3423°
perigee height: 507 km
apogee height: 561 km
right ascension of ascending node: 55.0059°
argument of perigee: 3.4877°
revolutions per day: 15.10623060
mean anomaly at epoch: 356.6619°
orbit number at epoch: 88469

The dashed part of the orbit path shows where the satellite is in the earth's shadow,  

DLR